Location: *
(53.9002°N, 27.5624°E)
Time: 20:19:10
(UTC+00:00)

Cosmos 1340 Rocket - Pass Details

Date: 12 November 2019
Orbit: 529 x 559 km, 81.2° (Epoch: 06 December)

Event Time Altitude Azimuth Distance (km) Brightness Sun altitude
Rises 15:20:44 0° 190° (S) 2,705 6.7 -9.5°
Reaches altitude 10° 15:22:52 10° 190° (S) 1,822 5.8 -9.8°
Maximum altitude 15:26:53 85° 103° (ESE) 563 2.8 -10.4°
Drops below altitude 10° 15:30:59 10° 14° (NNE) 1,852 5.2 -11.0°
Sets 15:33:11 0° 15° (NNE) 2,756 6.1 -11.3°
